Location: Dillon
(41.1766°N, 107.0923°W)
Time: 17:50:33
(UTC+00:00)

DIWATA 2B (PO-101) - Pass Details

Date: 27 June 2022
Orbit: 583 x 599 km, 98.0° (Epoch: 18 August)

Event Time Altitude Azimuth Distance (km) Brightness Sun altitude
Exits shadow 09:07:33 48° 175° (S) 785 ? -20.1°
Maximum altitude 09:08:41 83° 257° (WSW) 608 ? -20.0°
Drops below altitude 10° 09:12:55 10° 346° (NNW) 1,948 ? -19.6°
Sets 09:15:06 0° 347° (NNW) 2,855 ? -19.4°
